ERS 1 DEB, 35262

Orbit data source: Space-Track

ERS 1 DEB, 35262 is space debris in SSO originally from a launch on Wed, 17 Jul 1991 UTC launched from the French Guiana (FRGUI). Debris objects in space refer to the collection of defunct objects orbiting the Earth. Examples of debris include non-operational satellites, rocket bodies, and fragments generated from explosions, collisions, or faulty payload assembly.

Loading next visibility...
Identifier
35262, 1991-050R
Orbit
SSO
Country
Flag of ESAESA
Related business
Manufacturer
Unknown
Mission
Spacecraft
Bus & Motor
Unknown
Mass
Unknown
Launch date (UTC)
1991-07-17 (35 years ago)
Launch vehicle
Unknown
Launch site
French Guiana (FRGUI)
Object type
Payload
Rocket body
Debris
Shape & HBR
Unknown shape, 0.1 m
Radar Cross Section
Medium (>0.1 m² and <1 m²)

Expand to show TLE details & history
Last TLE update: 2 days ago

TLE from 2 days ago
0 ERS 1 DEB
1 35262U 91050R   26171.36513822  .00003244  00000-0  52034-3 0  9990
2 35262  98.4446 198.5839 0015036  28.4163  97.0186 14.72348253839625
Epoch: 2026-06-20T08:45Z
TLE epoch observation values (Epoch: 2026-06-20T08:45:47.942Z)
Latitude
53.6387°
Longitude
-9.87662°
Altitude
663.683 km
Speed
7.53 km/s
True Right ascension
02h 00m 36s
True Declination
53° 28' 20"
Sunlit
Object was in daylight at epoch
Visualization orbit readout
Latitude
Unknown
Longitude
Unknown
Altitude
Unknown
Speed
Unknown
Apparent Right ascension
Unknown
Apparent Declination
Unknown
Sunlit
N/A
Visualization observer readout
Local Sidereal Time
23:07:59
Azimuth
Unknown
Elevation
Unknown
Doppler factor
Unknown
Orbital elements
Apogee altitude
661.226 km
Perigee altitude
640.089 km
Semi-major axis
7,028.795 km
Eccentricity
0.0015
Inclination
98.4446°
RAAN
198.5839°
Arg. of periapsis
28.4163°
True anomaly
97.18957°
Mean anomaly
97.0186°
Eccentric anomaly
97.10409°
Mean motion
3.68317 °/min
Orbital period
97.74 mins
BSTAR
0.00052034
Loading maneuver chart data...
Computing Atmospheric mass density...
Loading historical data...
Loading historical data...
Loading historical data...
Loading historical data...
Loading historical data...
Loading historical data...
Loading historical data...

Documentation

Showing up to 5 results
|